AHY127 UBBB-UAAA

Flight info

Callsign AHY127
Flight time 2h 31m
Altitude 39000
Route NAMAS N35 RODAR A909 TUNEK B143 KRS A480 OTBOR/K0846F390 N147 GENDI Z621 ARBOL M610 TOMGO Z370 EKLAT
Aircraft A346/H-SDE2E3FGHIJ3J4J5M1RWXY/LB1D1

Departure

Time 2026-05-08 15:56
Airport Heydar Aliyev International Airport (UBBB)

Arrival

Time 2026-05-08 18:27
Airport Almaty International Airport (UAAA)
Time Latitude Longitude Altitude Speed Heading
2026-05-08 15:24 40.46765 50.05248 23 ft 0 kts 178°
2026-05-08 15:44 40.46766 50.05248 23 ft 1 kts 178°
2026-05-08 15:45 40.46791 50.05247 28 ft 4 kts 176°
2026-05-08 15:45 40.46817 50.05245 28 ft 3 kts 178°
2026-05-08 15:45 40.46836 50.05241 28 ft 4 kts 150°
2026-05-08 15:45 40.46842 50.05236 28 ft 4 kts 103°
2026-05-08 15:46 40.46840 50.05213 28 ft 4 kts 76°
2026-05-08 15:46 40.46834 50.05179 28 ft 4 kts 84°
2026-05-08 15:46 40.46834 50.05168 28 ft 0 kts 88°
2026-05-08 15:50 40.46834 50.05186 28 ft 4 kts 88°
2026-05-08 15:50 40.46835 50.05236 28 ft 7 kts 88°
2026-05-08 15:51 40.46837 50.05317 26 ft 11 kts 88°
2026-05-08 15:51 40.46802 50.05406 23 ft 13 kts 139°
2026-05-08 15:51 40.46767 50.05502 23 ft 14 kts 90°
2026-05-08 15:51 40.46769 50.05643 23 ft 18 kts 89°
2026-05-08 15:52 40.46772 50.05826 23 ft 22 kts 89°
2026-05-08 15:52 40.46774 50.06023 23 ft 14 kts 91°
2026-05-08 15:52 40.46723 50.06091 24 ft 12 kts 178°
2026-05-08 15:52 40.46621 50.06095 27 ft 18 kts 179°
2026-05-08 15:53 40.46475 50.06098 24 ft 26 kts 179°
2026-05-08 15:53 40.46285 50.06100 26 ft 28 kts 179°
2026-05-08 15:53 40.46085 50.06103 26 ft 29 kts 179°
2026-05-08 15:53 40.45878 50.06106 23 ft 30 kts 179°
2026-05-08 15:54 40.45739 50.06108 26 ft 12 kts 179°
2026-05-08 15:54 40.45664 50.06156 22 ft 14 kts 123°
2026-05-08 15:54 40.45665 50.06284 20 ft 17 kts 51°
2026-05-08 15:54 40.45766 50.06321 19 ft 16 kts
2026-05-08 15:55 40.45806 50.06321 21 ft 0 kts 359°
2026-05-08 15:55 40.46150 50.06316 21 ft 84 kts 359°
2026-05-08 15:55 40.46958 50.06305 21 ft 146 kts 360°
2026-05-08 15:56 40.48145 50.06287 126 ft 186 kts 359°
2026-05-08 15:56 40.49448 50.06238 830 ft 188 kts 355°
2026-05-08 15:56 40.50736 50.05931 1634 ft 189 kts 346°
2026-05-08 15:56 40.52017 50.05506 2236 ft 198 kts 351°
2026-05-08 15:57 40.53423 50.05184 2728 ft 213 kts 350°
2026-05-08 15:57 40.54936 50.04778 3161 ft 231 kts 349°
2026-05-08 15:57 40.56619 50.04333 3613 ft 252 kts 353°
2026-05-08 15:57 40.58406 50.04576 4149 ft 268 kts 22°
2026-05-08 15:58 40.59921 50.06005 4975 ft 272 kts 50°
2026-05-08 15:58 40.60782 50.08221 5887 ft 275 kts 78°
2026-05-08 15:58 40.60811 50.10744 6749 ft 279 kts 97°
2026-05-08 15:58 40.60531 50.13307 7473 ft 285 kts 99°
2026-05-08 15:59 40.60235 50.15862 7943 ft 288 kts 98°
2026-05-08 15:59 40.59939 50.18506 8129 ft 289 kts 98°
2026-05-08 15:59 40.59658 50.21125 8126 ft 289 kts 98°
2026-05-08 15:59 40.59383 50.23745 8127 ft 288 kts 98°
2026-05-08 16:00 40.59112 50.26360 8127 ft 288 kts 98°
2026-05-08 16:00 40.58778 50.28962 8125 ft 288 kts 104°
2026-05-08 16:00 40.58141 50.31492 8177 ft 293 kts 114°
2026-05-08 16:00 40.57267 50.33965 8900 ft 299 kts 116°
2026-05-08 16:01 40.56359 50.36408 10098 ft 295 kts 117°
2026-05-08 16:01 40.55449 50.38855 10936 ft 303 kts 117°
2026-05-08 16:01 40.54501 50.41417 11491 ft 320 kts 117°
2026-05-08 16:01 40.53512 50.44095 11962 ft 338 kts 117°
2026-05-08 16:02 40.52458 50.46963 12449 ft 357 kts 117°
2026-05-08 16:02 40.51353 50.49981 12923 ft 375 kts 117°
2026-05-08 16:02 40.50201 50.53128 13606 ft 386 kts 117°
2026-05-08 16:02 40.49029 50.56327 14426 ft 391 kts 117°
2026-05-08 16:03 40.47841 50.59565 15226 ft 395 kts 118°
2026-05-08 16:03 40.46635 50.62843 16017 ft 400 kts 118°
2026-05-08 16:03 40.45414 50.66161 16791 ft 406 kts 119°
2026-05-08 16:03 40.44191 50.69479 17525 ft 412 kts 119°
2026-05-08 16:04 40.42932 50.72879 18312 ft 417 kts 120°
2026-05-08 16:04 40.41654 50.76326 19005 ft 421 kts 120°
2026-05-08 16:04 40.40366 50.79800 19683 ft 426 kts 120°
2026-05-08 16:04 40.39062 50.83317 20362 ft 430 kts 121°
2026-05-08 16:05 40.37754 50.86871 21042 ft 435 kts 119°
2026-05-08 16:05 40.36854 50.90726 21667 ft 450 kts 103°
2026-05-08 16:05 40.36764 50.94870 22328 ft 461 kts 86°
2026-05-08 16:05 40.37377 50.98976 22988 ft 468 kts 79°
2026-05-08 16:06 40.38174 51.03160 23586 ft 475 kts 78°
2026-05-08 16:06 40.38999 51.07390 24074 ft 481 kts 78°
2026-05-08 16:06 40.39818 51.11675 24587 ft 486 kts 79°
2026-05-08 16:06 40.40625 51.16009 25114 ft 490 kts 79°
2026-05-08 16:07 40.41423 51.20385 25642 ft 495 kts 79°
2026-05-08 16:07 40.42220 51.24807 26164 ft 499 kts 80°
2026-05-08 16:07 40.43018 51.29269 26662 ft 504 kts 80°
2026-05-08 16:07 40.43821 51.33775 27157 ft 508 kts 80°
2026-05-08 16:08 40.44618 51.38259 27640 ft 513 kts 81°
2026-05-08 16:08 40.45430 51.42843 28119 ft 517 kts 82°
2026-05-08 16:08 40.45967 51.47507 28668 ft 514 kts 91°
2026-05-08 16:08 40.46000 51.52179 29278 ft 508 kts 100°
2026-05-08 16:09 40.45533 51.56758 29803 ft 503 kts 109°
2026-05-08 16:09 40.45026 51.59730 30135 ft 504 kts 111°
2026-05-08 16:09 40.43886 51.65732 30710 ft 506 kts 112°
2026-05-08 16:09 40.43021 51.70211 31307 ft 505 kts 112°
2026-05-08 16:10 40.42178 51.74625 31918 ft 504 kts 112°
2026-05-08 16:10 40.41336 51.79095 32504 ft 503 kts 112°
2026-05-08 16:10 40.40504 51.83558 33081 ft 503 kts 112°
2026-05-08 16:10 40.39675 51.88017 33652 ft 502 kts 112°
2026-05-08 16:11 40.38849 51.92465 34210 ft 501 kts 112°
2026-05-08 16:11 40.38021 51.96910 34675 ft 500 kts 112°
2026-05-08 16:11 40.37193 52.01340 35145 ft 500 kts 111°
2026-05-08 16:11 40.36363 52.05775 35585 ft 500 kts 111°
2026-05-08 16:12 40.35534 52.10199 36011 ft 499 kts 111°
2026-05-08 16:12 40.34715 52.14566 36428 ft 499 kts 111°
2026-05-08 16:12 40.33884 52.18989 36820 ft 499 kts 111°
2026-05-08 16:12 40.33053 52.23401 37218 ft 498 kts 111°
2026-05-08 16:13 40.32219 52.27821 37562 ft 498 kts 110°
2026-05-08 16:13 40.31382 52.32240 37879 ft 500 kts 110°
2026-05-08 16:13 40.30543 52.36670 38104 ft 502 kts 111°
2026-05-08 16:13 40.29697 52.41124 38310 ft 505 kts 111°
2026-05-08 16:14 40.28840 52.45604 38529 ft 507 kts 111°
2026-05-08 16:14 40.27878 52.50038 38768 ft 505 kts 114°
2026-05-08 16:14 40.26739 52.54318 38967 ft 503 kts 118°
2026-05-08 16:14 40.25395 52.58534 39112 ft 501 kts 122°
2026-05-08 16:15 40.22156 52.66548 39103 ft 494 kts 129°
2026-05-08 16:15 40.18340 52.74003 39137 ft 492 kts 133°
2026-05-08 16:16 40.14433 52.81375 39136 ft 493 kts 133°
2026-05-08 16:16 40.10574 52.88704 39115 ft 493 kts 133°
2026-05-08 16:17 40.07658 52.95200 39135 ft 506 kts 122°
2026-05-08 16:17 40.06021 53.01053 39140 ft 516 kts 111°
2026-05-08 16:17 40.05293 53.05675 39141 ft 524 kts 103°
2026-05-08 16:18 40.05217 53.15286 39144 ft 535 kts 88°
2026-05-08 16:18 40.06147 53.24875 39138 ft 535 kts 86°
2026-05-08 16:19 40.07120 53.34511 39122 ft 535 kts 87°
2026-05-08 16:19 40.08039 53.44169 39122 ft 535 kts 87°
2026-05-08 16:20 40.08926 53.53834 39113 ft 536 kts 88°
2026-05-08 16:20 40.09803 53.63534 39122 ft 537 kts 88°
2026-05-08 16:21 40.10666 53.73180 39121 ft 537 kts 88°
2026-05-08 16:21 40.11526 53.82884 39117 ft 537 kts 88°
2026-05-08 16:22 40.12234 53.90959 39121 ft 537 kts 88°
2026-05-08 16:22 40.13222 54.02304 39120 ft 537 kts 88°
2026-05-08 16:23 40.14062 54.12030 39109 ft 538 kts 88°
2026-05-08 16:23 40.14886 54.21705 39107 ft 539 kts 88°
2026-05-08 16:24 40.15707 54.31455 39114 ft 538 kts 88°
2026-05-08 16:24 40.16522 54.41197 39111 ft 538 kts 88°
2026-05-08 16:25 40.17328 54.50944 39108 ft 538 kts 88°
2026-05-08 16:25 40.18125 54.60694 39103 ft 538 kts 88°
2026-05-08 16:26 40.18909 54.70377 39101 ft 538 kts 88°
2026-05-08 16:26 40.19693 54.80134 39087 ft 539 kts 88°
2026-05-08 16:27 40.20467 54.89903 39094 ft 539 kts 88°
2026-05-08 16:27 40.21229 54.99669 39081 ft 538 kts 88°
2026-05-08 16:28 40.21981 55.09353 39082 ft 538 kts 88°
2026-05-08 16:28 40.22729 55.19099 39083 ft 537 kts 88°
2026-05-08 16:29 40.23468 55.28846 39076 ft 537 kts 88°
2026-05-08 16:29 40.24198 55.38597 39075 ft 537 kts 88°
2026-05-08 16:30 40.24915 55.48286 39079 ft 537 kts 89°
2026-05-08 16:30 40.25630 55.58040 39074 ft 537 kts 89°
2026-05-08 16:31 40.26225 55.66150 39048 ft 538 kts 88°
2026-05-08 16:31 40.27498 55.75870 39066 ft 543 kts 79°
2026-05-08 16:32 40.29707 55.85367 39069 ft 546 kts 72°
2026-05-08 16:32 40.32378 55.94699 39060 ft 546 kts 71°
2026-05-08 16:33 40.35050 56.04026 39058 ft 546 kts 71°
2026-05-08 16:33 40.37667 56.13312 39058 ft 546 kts 72°
2026-05-08 16:34 40.40284 56.22675 39048 ft 546 kts 72°
2026-05-08 16:34 40.42889 56.32035 39055 ft 545 kts 72°
2026-05-08 16:35 40.45496 56.41441 39052 ft 552 kts 72°
2026-05-08 16:35 40.48129 56.50976 39044 ft 564 kts 72°
2026-05-08 16:36 40.50825 56.60775 39047 ft 574 kts 72°
2026-05-08 16:36 40.53542 56.70684 39050 ft 576 kts 72°
2026-05-08 16:37 40.56257 56.80618 39047 ft 576 kts 72°
2026-05-08 16:37 40.58962 56.90568 39045 ft 577 kts 72°
2026-05-08 16:38 40.61640 57.00466 39052 ft 577 kts 72°
2026-05-08 16:38 40.64325 57.10436 39039 ft 577 kts 72°
2026-05-08 16:39 40.67005 57.20425 39046 ft 577 kts 72°
2026-05-08 16:39 40.69674 57.30421 39059 ft 577 kts 72°
2026-05-08 16:40 40.72315 57.40362 39044 ft 578 kts 72°
2026-05-08 16:40 40.74966 57.50385 39042 ft 578 kts 72°
2026-05-08 16:41 40.77607 57.60415 39056 ft 578 kts 72°
2026-05-08 16:42 40.81753 57.75327 39047 ft 580 kts 70°
2026-05-08 16:42 40.84630 57.85304 39044 ft 581 kts 70°
2026-05-08 16:43 40.87480 57.95299 39058 ft 581 kts 71°
2026-05-08 16:43 40.90312 58.05321 39047 ft 582 kts 71°
2026-05-08 16:44 40.93121 58.15310 39048 ft 582 kts 71°
2026-05-08 16:44 40.95938 58.25371 39042 ft 582 kts 71°
2026-05-08 16:45 40.98744 58.35432 39046 ft 582 kts 71°
2026-05-08 16:45 41.01545 58.45512 39045 ft 583 kts 71°
2026-05-08 16:46 41.04317 58.55532 39049 ft 583 kts 71°
2026-05-08 16:46 41.07098 58.65628 39032 ft 583 kts 71°
2026-05-08 16:47 41.09879 58.75759 39044 ft 584 kts 71°
2026-05-08 16:47 41.12652 58.85902 39033 ft 584 kts 71°
2026-05-08 16:48 41.15416 58.96050 39042 ft 584 kts 71°
2026-05-08 16:48 41.18152 59.06135 39043 ft 584 kts 71°
2026-05-08 16:49 41.20897 59.16295 39044 ft 584 kts 71°
2026-05-08 16:49 41.23634 59.26472 39039 ft 584 kts 71°
2026-05-08 16:50 41.26360 59.36650 39039 ft 584 kts 71°
2026-05-08 16:50 41.29060 59.46771 39044 ft 584 kts 71°
2026-05-08 16:51 41.31767 59.56964 39040 ft 583 kts 71°
2026-05-08 16:51 41.34461 59.67162 39035 ft 584 kts 72°
2026-05-08 16:52 41.37010 59.77433 39031 ft 583 kts 73°
2026-05-08 16:52 41.39468 59.87662 39035 ft 583 kts 73°
2026-05-08 16:53 41.43191 60.03109 39032 ft 583 kts 73°
2026-05-08 16:53 41.45666 60.13402 39031 ft 582 kts 73°
2026-05-08 16:54 41.48128 60.23704 39032 ft 582 kts 73°
2026-05-08 16:54 41.50546 60.33961 39037 ft 582 kts 73°
2026-05-08 16:55 41.52964 60.44287 39031 ft 582 kts 74°
2026-05-08 16:55 41.55374 60.54628 39037 ft 582 kts 74°
2026-05-08 16:56 41.57780 60.64969 39027 ft 582 kts 73°
2026-05-08 16:56 41.60405 60.75143 39033 ft 583 kts 71°
2026-05-08 16:57 41.63115 60.85371 39034 ft 583 kts 71°
2026-05-08 16:57 41.65807 60.95609 39027 ft 582 kts 71°
2026-05-08 16:58 41.68473 61.05841 39028 ft 581 kts 71°
2026-05-08 16:58 41.71107 61.16005 39026 ft 581 kts 72°
2026-05-08 16:59 41.73751 61.26249 39026 ft 581 kts 72°
2026-05-08 16:59 41.76385 61.36499 39024 ft 581 kts 72°
2026-05-08 17:00 41.79011 61.46764 39023 ft 582 kts 72°
2026-05-08 17:00 41.81629 61.57034 39022 ft 581 kts 72°
2026-05-08 17:01 41.84214 61.67233 39022 ft 581 kts 72°
2026-05-08 17:01 41.86808 61.77512 39021 ft 581 kts 72°
2026-05-08 17:02 41.89387 61.87795 39018 ft 581 kts 72°
2026-05-08 17:02 41.91939 61.98014 39010 ft 565 kts 72°
2026-05-08 17:03 41.93171 62.02966 39012 ft 553 kts 72°
2026-05-08 17:03 41.94368 62.07790 39019 ft 551 kts 72°
2026-05-08 17:03 41.96792 62.17558 39017 ft 550 kts 72°
2026-05-08 17:04 41.99209 62.27326 39014 ft 550 kts 72°
2026-05-08 17:04 42.01617 62.37108 39016 ft 550 kts 72°
2026-05-08 17:05 42.03997 62.46825 39016 ft 550 kts 72°
2026-05-08 17:05 42.06385 62.56619 39015 ft 550 kts 72°
2026-05-08 17:06 42.08764 62.66413 39015 ft 550 kts 72°
2026-05-08 17:06 42.11134 62.76212 39006 ft 550 kts 72°
2026-05-08 17:07 42.13498 62.86020 39010 ft 550 kts 72°
2026-05-08 17:07 42.15836 62.95764 39011 ft 549 kts 73°
2026-05-08 17:08 42.18184 63.05578 39011 ft 549 kts 73°
2026-05-08 17:08 42.20526 63.15389 39014 ft 549 kts 72°
2026-05-08 17:09 42.22861 63.25207 39023 ft 549 kts 72°
2026-05-08 17:09 42.25168 63.34962 39021 ft 549 kts 73°
2026-05-08 17:10 42.27478 63.44783 39020 ft 547 kts 73°
2026-05-08 17:10 42.29777 63.54592 39031 ft 547 kts 73°
2026-05-08 17:11 42.32068 63.64406 39030 ft 547 kts 73°
2026-05-08 17:11 42.34330 63.74158 39029 ft 546 kts 72°
2026-05-08 17:12 42.36603 63.83982 39032 ft 546 kts 72°
2026-05-08 17:12 42.38862 63.93794 39033 ft 546 kts 73°
2026-05-08 17:13 42.41107 64.03615 39035 ft 546 kts 73°
2026-05-08 17:13 42.43320 64.13462 39033 ft 546 kts 73°
2026-05-08 17:14 42.45506 64.23242 39033 ft 546 kts 73°
2026-05-08 17:14 42.47725 64.33085 39033 ft 546 kts 73°
2026-05-08 17:15 42.49942 64.42935 39030 ft 546 kts 73°
2026-05-08 17:15 42.52146 64.52795 39027 ft 546 kts 73°
2026-05-08 17:16 42.54326 64.62600 39029 ft 546 kts 73°
2026-05-08 17:16 42.56510 64.72471 39027 ft 546 kts 73°
2026-05-08 17:17 42.58690 64.82362 39025 ft 546 kts 73°
2026-05-08 17:17 42.60860 64.92254 39024 ft 546 kts 73°
2026-05-08 17:18 42.63001 65.02084 39023 ft 545 kts 73°
2026-05-08 17:18 42.65152 65.11972 39020 ft 545 kts 73°
2026-05-08 17:19 42.67292 65.21861 39022 ft 545 kts 73°
2026-05-08 17:19 42.69421 65.31751 39014 ft 543 kts 73°
2026-05-08 17:20 42.71520 65.41548 39019 ft 541 kts 73°
2026-05-08 17:20 42.73619 65.51391 39020 ft 541 kts 73°
2026-05-08 17:21 42.75710 65.61246 39013 ft 542 kts 73°
2026-05-08 17:21 42.77789 65.71094 39014 ft 540 kts 73°
2026-05-08 17:22 42.79857 65.80930 39012 ft 540 kts 73°
2026-05-08 17:22 42.81906 65.90710 39012 ft 540 kts 73°
2026-05-08 17:23 42.83955 66.00555 39007 ft 539 kts 74°
2026-05-08 17:23 42.85993 66.10399 39005 ft 539 kts 74°
2026-05-08 17:24 42.88013 66.20259 39001 ft 539 kts 74°
2026-05-08 17:24 42.90016 66.30119 39000 ft 539 kts 74°
2026-05-08 17:25 42.92001 66.39933 38999 ft 539 kts 74°
2026-05-08 17:25 42.93988 66.49809 38998 ft 539 kts 74°
2026-05-08 17:26 42.95968 66.59698 38995 ft 539 kts 74°
2026-05-08 17:26 42.97973 66.69592 38997 ft 541 kts 74°
2026-05-08 17:27 42.99968 66.79444 38992 ft 541 kts 74°
2026-05-08 17:27 43.01943 66.89371 38991 ft 541 kts 74°
2026-05-08 17:28 43.03899 66.99323 38993 ft 542 kts 74°
2026-05-08 17:28 43.05861 67.09292 38990 ft 543 kts 74°
2026-05-08 17:29 43.07801 67.19213 38983 ft 543 kts 74°
2026-05-08 17:29 43.09739 67.29201 38990 ft 543 kts 74°
2026-05-08 17:30 43.11670 67.39203 38981 ft 543 kts 74°
2026-05-08 17:30 43.13596 67.49211 38981 ft 543 kts 74°
2026-05-08 17:31 43.15518 67.59219 38973 ft 543 kts 74°
2026-05-08 17:31 43.17412 67.69161 38970 ft 542 kts 74°
2026-05-08 17:32 43.19311 67.79190 38965 ft 543 kts 74°
2026-05-08 17:32 43.21204 67.89212 38966 ft 543 kts 74°
2026-05-08 17:33 43.23084 67.99244 38961 ft 543 kts 74°
2026-05-08 17:33 43.24945 68.09218 38958 ft 543 kts 74°
2026-05-08 17:34 43.26809 68.19266 38959 ft 543 kts 74°
2026-05-08 17:34 43.28660 68.29329 38959 ft 542 kts 74°
2026-05-08 17:35 43.30359 68.39426 38959 ft 543 kts 78°
2026-05-08 17:35 43.31593 68.49589 38940 ft 542 kts 80°
2026-05-08 17:36 43.32737 68.59841 38950 ft 543 kts 82°
2026-05-08 17:36 43.33642 68.70129 38953 ft 540 kts 82°
2026-05-08 17:37 43.34507 68.80377 38962 ft 539 kts 82°
2026-05-08 17:37 43.35364 68.90551 38977 ft 539 kts 82°
2026-05-08 17:38 43.36218 69.00789 38983 ft 538 kts 82°
2026-05-08 17:38 43.37062 69.11013 38997 ft 537 kts 82°
2026-05-08 17:39 43.37912 69.21222 39005 ft 537 kts 82°
2026-05-08 17:39 43.38800 69.31359 39005 ft 537 kts 82°
2026-05-08 17:40 43.39684 69.41559 39007 ft 536 kts 81°
2026-05-08 17:40 43.40551 69.51742 39010 ft 535 kts 82°
2026-05-08 17:41 43.41406 69.61926 39010 ft 535 kts 82°
2026-05-08 17:41 43.42250 69.72117 39026 ft 534 kts 81°
2026-05-08 17:42 43.43095 69.82166 39008 ft 530 kts 81°
2026-05-08 17:42 43.43967 69.92244 39002 ft 530 kts 81°
2026-05-08 17:43 43.44825 70.02323 39011 ft 530 kts 81°
2026-05-08 17:43 43.45668 70.12364 38994 ft 521 kts 82°
2026-05-08 17:44 43.46476 70.22172 38994 ft 517 kts 82°
2026-05-08 17:44 43.47281 70.32020 38995 ft 517 kts 82°
2026-05-08 17:45 43.48076 70.41867 38991 ft 517 kts 82°
2026-05-08 17:45 43.48859 70.51690 38990 ft 514 kts 82°
2026-05-08 17:46 43.49635 70.61485 38989 ft 514 kts 82°
2026-05-08 17:46 43.50396 70.71218 38988 ft 514 kts 82°
2026-05-08 17:47 43.51150 70.81017 38997 ft 513 kts 82°
2026-05-08 17:47 43.51770 70.89140 38994 ft 511 kts 82°
2026-05-08 17:48 43.52628 71.00545 38999 ft 511 kts 82°
2026-05-08 17:48 43.53345 71.10244 38994 ft 511 kts 82°
2026-05-08 17:49 43.54057 71.20015 38994 ft 512 kts 82°
2026-05-08 17:49 43.54760 71.29788 38994 ft 512 kts 82°
2026-05-08 17:50 43.55455 71.39563 38994 ft 512 kts 82°
2026-05-08 17:50 43.56137 71.49281 38994 ft 512 kts 82°
2026-05-08 17:51 43.56814 71.59052 38993 ft 511 kts 82°
2026-05-08 17:51 43.57484 71.68834 38989 ft 511 kts 82°
2026-05-08 17:52 43.58145 71.78608 38988 ft 511 kts 82°
2026-05-08 17:53 43.59121 71.93279 38989 ft 512 kts 82°
2026-05-08 17:53 43.59758 72.03006 38989 ft 512 kts 83°
2026-05-08 17:54 43.60390 72.12799 38988 ft 512 kts 83°
2026-05-08 17:54 43.61015 72.22606 38988 ft 512 kts 83°
2026-05-08 17:55 43.61633 72.32377 38984 ft 508 kts 83°
2026-05-08 17:55 43.62227 72.42018 38985 ft 506 kts 83°
2026-05-08 17:56 43.62820 72.51716 38989 ft 506 kts 83°
2026-05-08 17:56 43.63404 72.61409 38990 ft 506 kts 83°
2026-05-08 17:57 43.63979 72.71096 38990 ft 505 kts 83°
2026-05-08 17:57 43.64546 72.80768 38990 ft 505 kts 83°
2026-05-08 17:58 43.65100 72.90379 38982 ft 505 kts 83°
2026-05-08 17:58 43.65648 73.00061 38989 ft 506 kts 83°
2026-05-08 17:59 43.66194 73.09790 38985 ft 508 kts 83°
2026-05-08 17:59 43.66732 73.19527 38988 ft 508 kts 83°
2026-05-08 18:00 43.67256 73.29198 38986 ft 508 kts 83°
2026-05-08 18:00 43.68036 73.43851 38986 ft 510 kts 84°
2026-05-08 18:01 43.68543 73.53636 38984 ft 510 kts 84°
2026-05-08 18:01 43.69041 73.63424 38978 ft 510 kts 84°
2026-05-08 18:02 43.69181 73.68283 38603 ft 514 kts 88°
2026-05-08 18:02 43.69154 73.71642 37991 ft 519 kts 91°
2026-05-08 18:02 43.68764 73.78250 37108 ft 520 kts 97°
2026-05-08 18:02 43.68191 73.83178 36541 ft 519 kts 101°
2026-05-08 18:03 43.67408 73.88042 35920 ft 518 kts 103°
2026-05-08 18:03 43.66554 73.92901 35236 ft 520 kts 104°
2026-05-08 18:03 43.65689 73.97756 34602 ft 520 kts 104°
2026-05-08 18:03 43.64844 74.02544 33990 ft 520 kts 104°
2026-05-08 18:04 43.63997 74.07402 33280 ft 520 kts 104°
2026-05-08 18:04 43.63149 74.12262 32633 ft 519 kts 104°
2026-05-08 18:04 43.62305 74.17099 31989 ft 517 kts 104°
2026-05-08 18:04 43.61463 74.21920 31351 ft 516 kts 105°
2026-05-08 18:05 43.60624 74.26734 30707 ft 514 kts 105°
2026-05-08 18:05 43.59788 74.31534 30040 ft 514 kts 105°
2026-05-08 18:05 43.58948 74.36325 29296 ft 512 kts 105°
2026-05-08 18:05 43.58112 74.41076 28838 ft 505 kts 105°
2026-05-08 18:06 43.57287 74.45752 28429 ft 497 kts 105°
2026-05-08 18:06 43.56483 74.50294 28008 ft 490 kts 105°
2026-05-08 18:06 43.55675 74.54838 27576 ft 484 kts 105°
2026-05-08 18:06 43.54877 74.59317 27166 ft 477 kts 105°
2026-05-08 18:07 43.54088 74.63741 26747 ft 472 kts 105°
2026-05-08 18:07 43.53307 74.68111 26338 ft 466 kts 105°
2026-05-08 18:07 43.52533 74.72428 25929 ft 461 kts 105°
2026-05-08 18:07 43.51765 74.76702 25518 ft 456 kts 105°
2026-05-08 18:08 43.51005 74.80925 25100 ft 452 kts 105°
2026-05-08 18:08 43.50260 74.85059 24694 ft 448 kts 105°
2026-05-08 18:08 43.49511 74.89208 24287 ft 444 kts 105°
2026-05-08 18:08 43.48765 74.93327 23875 ft 441 kts 105°
2026-05-08 18:09 43.48022 74.97411 23444 ft 437 kts 105°
2026-05-08 18:09 43.47285 75.01455 22981 ft 433 kts 105°
2026-05-08 18:09 43.46553 75.05463 22561 ft 429 kts 105°
2026-05-08 18:09 43.45826 75.09430 22139 ft 424 kts 105°
2026-05-08 18:10 43.45106 75.13351 21744 ft 420 kts 105°
2026-05-08 18:10 43.44393 75.17229 21333 ft 416 kts 105°
2026-05-08 18:10 43.43693 75.21027 20948 ft 412 kts 105°
2026-05-08 18:10 43.42991 75.24835 20529 ft 409 kts 105°
2026-05-08 18:11 43.42294 75.28616 20152 ft 406 kts 105°
2026-05-08 18:11 43.41601 75.32367 19759 ft 403 kts 105°
2026-05-08 18:11 43.40911 75.36087 19363 ft 400 kts 105°
2026-05-08 18:11 43.40224 75.39779 18990 ft 397 kts 105°
2026-05-08 18:12 43.39541 75.43447 18598 ft 394 kts 105°
2026-05-08 18:12 43.38861 75.47090 18203 ft 392 kts 105°
2026-05-08 18:12 43.38192 75.50664 17788 ft 389 kts 105°
2026-05-08 18:12 43.37578 75.54273 17419 ft 386 kts 102°
2026-05-08 18:13 43.37127 75.57899 17002 ft 384 kts 99°
2026-05-08 18:13 43.36745 75.61528 16579 ft 382 kts 98°
2026-05-08 18:13 43.36373 75.65136 16171 ft 380 kts 98°
2026-05-08 18:13 43.36002 75.68718 15777 ft 377 kts 98°
2026-05-08 18:14 43.35632 75.72284 15382 ft 375 kts 98°
2026-05-08 18:14 43.35261 75.75820 15007 ft 373 kts 98°
2026-05-08 18:14 43.34891 75.79340 14614 ft 371 kts 98°
2026-05-08 18:14 43.34525 75.82796 14221 ft 369 kts 98°
2026-05-08 18:15 43.34154 75.86285 13844 ft 368 kts 98°
2026-05-08 18:15 43.33785 75.89756 13420 ft 365 kts 98°
2026-05-08 18:15 43.33419 75.93202 13001 ft 363 kts 98°
2026-05-08 18:15 43.33052 75.96633 12596 ft 361 kts 98°
2026-05-08 18:16 43.32688 76.00034 12218 ft 358 kts 98°
2026-05-08 18:16 43.32325 76.03408 11827 ft 356 kts 98°
2026-05-08 18:16 43.31962 76.06764 11443 ft 353 kts 98°
2026-05-08 18:16 43.31601 76.10101 11042 ft 351 kts 98°
2026-05-08 18:17 43.31246 76.13370 10648 ft 350 kts 98°
2026-05-08 18:17 43.30888 76.16652 10327 ft 344 kts 98°
2026-05-08 18:17 43.30537 76.19850 10197 ft 332 kts 98°
2026-05-08 18:17 43.30201 76.22922 10133 ft 318 kts 98°
2026-05-08 18:18 43.29878 76.25861 10087 ft 304 kts 98°
2026-05-08 18:18 43.29569 76.28671 10052 ft 292 kts 98°
2026-05-08 18:18 43.29268 76.31400 9992 ft 287 kts 98°
2026-05-08 18:18 43.28967 76.34123 9653 ft 288 kts 98°
2026-05-08 18:19 43.28665 76.36844 9311 ft 287 kts 99°
2026-05-08 18:19 43.28364 76.39551 9033 ft 286 kts 99°
2026-05-08 18:19 43.28069 76.42206 8740 ft 284 kts 99°
2026-05-08 18:19 43.27770 76.44883 8443 ft 282 kts 99°
2026-05-08 18:20 43.27473 76.47543 8159 ft 281 kts 99°
2026-05-08 18:20 43.27176 76.50189 7870 ft 280 kts 99°
2026-05-08 18:20 43.26882 76.52827 7606 ft 278 kts 99°
2026-05-08 18:20 43.26587 76.55445 7329 ft 277 kts 99°
2026-05-08 18:21 43.26293 76.58053 7049 ft 276 kts 99°
2026-05-08 18:21 43.25998 76.60653 6766 ft 275 kts 99°
2026-05-08 18:21 43.25709 76.63208 6484 ft 274 kts 99°
2026-05-08 18:21 43.25415 76.65791 6191 ft 273 kts 99°
2026-05-08 18:22 43.25123 76.68358 5897 ft 272 kts 99°
2026-05-08 18:22 43.24834 76.70920 5604 ft 270 kts 101°
2026-05-08 18:22 43.24543 76.73459 5347 ft 269 kts 100°
2026-05-08 18:22 43.24253 76.75971 5225 ft 261 kts 100°
2026-05-08 18:23 43.23980 76.78365 5219 ft 247 kts 101°
2026-05-08 18:23 43.23884 76.80652 5168 ft 237 kts 79°
2026-05-08 18:23 43.24555 76.82691 5148 ft 235 kts 57°
2026-05-08 18:23 43.25463 76.84493 4984 ft 232 kts 55°
2026-05-08 18:24 43.26397 76.86298 4768 ft 230 kts 55°
2026-05-08 18:24 43.27303 76.88045 4569 ft 220 kts 56°
2026-05-08 18:24 43.28177 76.89706 4371 ft 208 kts 56°
2026-05-08 18:24 43.28981 76.91280 4194 ft 191 kts 57°
2026-05-08 18:25 43.29671 76.92724 4025 ft 175 kts 59°
2026-05-08 18:25 43.30307 76.94103 3725 ft 168 kts 58°
2026-05-08 18:25 43.30957 76.95410 3415 ft 164 kts 57°
2026-05-08 18:25 43.31599 76.96671 3165 ft 163 kts 57°
2026-05-08 18:26 43.32254 76.97955 2986 ft 162 kts 57°
2026-05-08 18:26 43.32878 76.99239 2754 ft 160 kts 58°
2026-05-08 18:26 43.33500 77.00498 2493 ft 158 kts 55°
2026-05-08 18:26 43.34123 77.01745 2275 ft 157 kts 56°
2026-05-08 18:27 43.34682 77.02869 2233 ft 114 kts 56°
2026-05-08 18:27 43.34922 77.03354 2232 ft 71 kts 56°
2026-05-08 18:27 43.35130 77.03769 2230 ft 29 kts 49°
2026-05-08 18:27 43.35289 77.03938 2230 ft 30 kts 28°
2026-05-08 18:28 43.35412 77.04002 2230 ft 14 kts 351°
2026-05-08 18:28 43.35424 77.03920 2228 ft 11 kts 245°
2026-05-08 18:28 43.35365 77.03788 2230 ft 26 kts 237°
2026-05-08 18:28 43.35234 77.03522 2233 ft 36 kts 236°
2026-05-08 18:29 43.35095 77.03240 2230 ft 36 kts 236°
2026-05-08 18:29 43.34954 77.02958 2228 ft 35 kts 235°
2026-05-08 18:29 43.34845 77.02739 2227 ft 23 kts 236°
2026-05-08 18:29 43.34775 77.02559 2229 ft 20 kts 263°
2026-05-08 18:30 43.34780 77.02357 2237 ft 23 kts 274°
2026-05-08 18:30 43.34790 77.02134 2237 ft 25 kts 273°
2026-05-08 18:30 43.34803 77.01893 2237 ft 26 kts 274°
2026-05-08 18:30 43.34813 77.01663 2230 ft 21 kts 274°
2026-05-08 18:31 43.34831 77.01541 2232 ft 12 kts 316°
2026-05-08 18:31 43.34914 77.01478 2235 ft 15 kts 335°
2026-05-08 18:31 43.34986 77.01403 2230 ft 10 kts 268°
2026-05-08 18:31 43.34966 77.01317 2232 ft 4 kts 248°
2026-05-08 18:32 43.34966 77.01316 2232 ft 0 kts 248°